This is the latest recevied weather packets stored in our database for station/object KO4LFZ. If no packets are shown the sender has not sent any weather packets the latest 10 day(s).
| Time | Temp. | Humidity | Pressure | Rain* | Wind** | Luminosity | Snow |
|---|---|---|---|---|---|---|---|
| 1777493409 | 20° C | 63% | 1014.4 hPa | 0 mm | - | 642 W/m² | - |
| 1777493104 | 20.56° C | 63% | 1014.4 hPa | 0 mm | - | 640 W/m² | - |
| 1777492801 | 20.56° C | 63% | 1014.3 hPa | 0 mm | - | 594 W/m² | - |
| 1777492496 | 20° C | 69% | 1014.4 hPa | 0 mm | - | 675 W/m² | - |
| 1777492193 | 20° C | 68% | 1014.6 hPa | 0 mm | - | 710 W/m² | - |
| 1777491890 | 20° C | 69% | 1014.6 hPa | 0 mm | - | 538 W/m² | - |
| 1777491586 | 20° C | 69% | 1014.5 hPa | 0 mm | - | 560 W/m² | - |
| 1777491284 | 20° C | 69% | 1014.4 hPa | 0 mm | - | 673 W/m² | - |
| 1777490981 | 20° C | 66% | 1014.7 hPa | 0 mm | - | 720 W/m² | - |
| 1777490676 | 20° C | 67% | 1014.6 hPa | 0 mm | - | 524 W/m² | - |
| 1777490372 | 20.56° C | 68% | 1014.4 hPa | 0 mm | - | 749 W/m² | - |
| 1777490070 | 20.56° C | 67% | 1014.6 hPa | 0 mm | - | 795 W/m² | - |
| 1777489767 | 20° C | 67% | 1014.9 hPa | 0 mm | - | 738 W/m² | - |
| 1777489465 | 20° C | 69% | 1014.9 hPa | 0 mm | - | 772 W/m² | - |
| 1777489161 | 20° C | 69% | 1014.9 hPa | 0 mm | - | 772 W/m² | - |
| 1777488859 | 20° C | 71% | 1014.8 hPa | 0 mm | - | 817 W/m² | - |
| 1777488556 | 20° C | 71% | 1014.8 hPa | 0 mm | - | 920 W/m² | - |
| 1777488254 | 19.44° C | 73% | 1014.9 hPa | 0 mm | - | 891 W/m² | - |
| 1777487951 | 19.44° C | 73% | 1014.8 hPa | 0 mm | - | 880 W/m² | - |
| 1777487649 | 19.44° C | 73% | 1014.8 hPa | 0 mm | - | 272 W/m² | - |
| 1777487346 | 18.89° C | 73% | 1015 hPa | 0 mm | - | 791 W/m² | - |
| 1777487044 | 18.89° C | 73% | 1015 hPa | 0 mm | - | 840 W/m² | - |
| 1777486739 | 18.89° C | 72% | 1015.2 hPa | 0 mm | - | 723 W/m² | - |
| 1777486437 | 18.89° C | 72% | 1015.2 hPa | 0 mm | - | 599 W/m² | - |
| 1777486134 | 18.89° C | 74% | 1015.2 hPa | 0 mm | - | 754 W/m² | - |
* Rain latest hour (hover to see other rain measurements)
** Current wind speed in m/s (hover to see current wind gust speed)